Regional Weather Roundup
Issued by NWS Northern Indiana

Home | Current Version | Previous Version | Graphics & Text | Print | Product List | Glossary On
Versions: 1 2 3 4 5 6 7 8 9 10 11 12 13 14 15 16 17 18 19 20 21 22 23 24 25 26 27 28 29 30 31 32 33 34 35 36 37 38 39 40 41 42 43 44 45 46 47 48 49 50
496
ASUS43 KIWX 301010
RWRIWX

KIWX WEATHER ROUNDUP
NATIONAL WEATHER SERVICE NORTHERN INDIANA
600 AM EDT SAT APR 30 2016

NOTE: "FAIR" INDICATES FEW OR NO CLOUDS BELOW 12,000 FEET WITH NO
SIGNIFICANT WEATHER AND/OR OBSTRUCTIONS TO VISIBILITY.

* THESE STATIONS ARE NOT UNDER NWS QUALITY CONTROL. THEY ALSO MAY NOT
  REPORT WEATHER SUCH AS PRECIPITATION OR FOG.

INZ001>027-301100-
NORTHERN INDIANA

CITY           SKY/WX    TMP DP  RH WIND       PRES   REMARKS
GARY*          MOCLDY    48  48 100 E12       30.06F
VALPARAISO     CLOUDY    45  42  89 E10       30.05F FOG
MICHIGAN CITY* CLOUDY    45  45 100 E3        30.07F
LAPORTE*       CLOUDY    47  46  96 E10       30.06F FOG
KNOX*          CLOUDY    45  37  76 E9        30.05F
SOUTH BEND     PTCLDY    45  40  82 E10       30.07F
GOSHEN         CLOUDY    44  39  82 E9        30.08S HAZE
MONTICELLO*    CLOUDY    48  44  84 E6        30.03R
LOGANSPORT*    CLOUDY    46  43  87 E8        30.06R
ROCHESTER*     CLOUDY    46  43  87 E8        30.06S
WARSAW*        CLOUDY    41  37  87 E9        30.07F
ANGOLA*        CLEAR     41  28  60 E7        30.12R
FORT WAYNE     CLOUDY    42  38  85 E10       30.09S
HUNTINGTON*    CLOUDY   N/A N/A N/A E7        30.07S
PERU/GRISSOM   CLOUDY    48  45  88 E13       30.03R
MARION*        CLOUDY    47  42  85 E9        30.06R

$$
INZ028>050-301100-
CENTRAL INDIANA

CITY           SKY/WX    TMP DP  RH WIND       PRES   REMARKS
LAFAYETTE      CLOUDY    50  45  83 E13       30.02R
KOKOMO*        MOCLDY    48  41  76 E9        30.05R
MUNCIE*        CLOUDY    49  43  80 SE10      30.05S
INDIANAPOLIS   CLOUDY    53  46  77 E13       29.99F

$$
MIZ043>046-050>051-056>058-064>065-071>073-077>080-301100-
SOUTHWEST LOWER MICHIGAN

CITY           SKY/WX    TMP DP  RH WIND       PRES   REMARKS
BATTLE CREEK   CLOUDY    45  39  79 E5        30.13R
BENTON HARBOR  CLOUDY    46  41  82 E6        30.09S
COLDWATER*     CLOUDY    46  38  74 E6        30.12R
HILLSDALE*     PTCLDY    44  40  89 E5        30.12R
HOLLAND        CLOUDY    41  37  86 E6        30.12R
GRAND RAPIDS   CLOUDY    39  36  89 E6        30.14R
KALAMAZOO      CLOUDY    47  38  71 E5        30.12R
STURGIS*       CLOUDY    42  37  84 E6        30.11R
THREE RIVERS*  CLOUDY    46  39  76 E7        30.12R

$$
OHZ001>008-015>018-024>025-301100-
NORTHWEST OHIO

CITY           SKY/WX    TMP DP  RH WIND       PRES   REMARKS
WAUSEON*         N/A     39 N/A N/A CALM      30.13R
DEFIANCE       CLOUDY    42  37  82 E6        30.12R
FINDLAY        PTCLDY    40  34  79 E9        30.10R
TOLEDO EXPRESS CLEAR     38  35  89 CALM      30.13R
TOLEDO METCALF CLEAR     41  35  79 SE3       30.14R
LIMA           PTCLDY    41  38  89 NE12      30.07S

$$
AND FOR LAKE MICHIGAN COASTAL AND OPEN LAKE BUOY OBSERVATIONS

STATION/POSITION TEMP    WIND        PRES    VSBY  WAVE
                 AIR SEA DIR/SP/G                  HT/PER
                 (F)     (DEG/KT/KT) (MB)    (MI)  (FT/S)
CALUMET HARBOR    47      60/ 11/ 16 1017.4R
MICHIGAN CITY     46      50/  9/ 10   N/A
BURNS HARBOR      47      90/ 10/ 13 1018.6R
SAINT JOSEPH      46      10/  2/  3 1019.6S
SOUTH LAKE BUOY   42 40   70/ 10/ 10 1019.4R         1
4 MI NW BRIDGMAN  47 47                N/A           1/ 4

$$
&&




USA.gov is the U.S. government's official web portal to all federal, state and local government web resources and services.